Regional Weather Roundup
Issued by NWS

Home | Current Version | Previous Version | Text Only | Print | Product List | Glossary On
Versions: 1 2 3 4 5 6 7 8 9 10 11 12 13 14 15 16 17 18 19 20 21 22 23 24 25 26 27 28 29 30 31 32 33 34 35 36 37 38 39 40 41 42 43 44 45 46 47 48 49 50
000
ASUS43 KDTX 200810
RWRMI
MICHIGAN HOURLY REGIONAL WEATHER ROUNDUP
NATIONAL WEATHER SERVICE DETROIT/PONTIAC MI
400 AM EDT SAT SEP 20 2014

NOTE: "FAIR" INDICATES FEW OR NO CLOUDS BELOW 12,000 FEET WITH NO
SIGNIFICANT WEATHER AND/OR OBSTRUCTION TO VISIBILITY.

MIZ047>049-052>055-059>063-066>070-074>076-081>083-200900-
SOUTHEAST LOWER MICHIGAN

CITY           SKY/WX    TMP DP  RH WIND       PRES   REMARKS
ADRIAN         CLEAR     52  46  80 SW5       30.00F
ALMA           MOCLDY    54  48  81 S6        29.93F
ANN ARBOR      CLEAR     50  47  89 SW6       29.99F
BAD AXE        PTCLDY    55  52  90 S10       29.93F
CARO           PTCLDY    56  50  81 S8        29.94S
DETROIT CITY   PTCLDY    61  50  67 SW7       29.99F
DETROIT        PTCLDY    53  48  83 SW3       30.00F
FLINT          CLEAR     58  48  69 S6        29.96F
GROSSE ILE     PTCLDY    61  55  82 S10       29.98F
HILLSDALE      CLEAR     55  49  81 S6        30.00R
HOWELL         CLOUDY    54  49  81 S5        29.98S

CITY           SKY/WX    TMP DP  RH WIND       PRES   REMARKS
JACKSON        CLEAR     54  46  74 SW6       29.98S
LAMBERTVILLE   PTCLDY    55  46  71 S5        30.00F
LANSING        PTCLDY    56  47  71 S7        29.97S
LAPEER         PTSUNNY   56  48  75 SW8       29.97F
MASON          CLEAR     54  47  79 S5        29.96F
MONROE         PTCLDY    55  48  76 S7        29.98F
MT. CLEMENS    PTCLDY    57  57  97 S8        29.97F
PONTIAC        PTCLDY    57  47  69 S5        29.98S
PORT HOPE        N/A     59  50  72 VRB6      29.91F
PORT HURON     PTCLDY    52  52 100 S3        29.97F
TRI CITIES     MOCLDY    56  50  80 S12       29.93F
TROY           PTCLDY    57  51  80 SW8       30.00S
SAGINAW HB     PTCLDY    55  50  82 S9        29.93S
$$
MIZ043>046-050>051-056>058-064>065-071>073-077>080-200900-
SOUTHWEST LOWER MICHIGAN

CITY           SKY/WX    TMP DP  RH WIND       PRES   REMARKS
BATTLE CREEK   PTCLDY    56  47  71 S10       29.97F
BENTON HARBOR  CLOUDY    60  49  66 S9        29.95S
BIG RAPIDS     PTCLDY    59  51  74 S9G17     29.86F
COLDWATER      CLEAR     56  49  77 SW5       29.99S
FREMONT        FAIR      58  49  72 S6        29.87F
HOLLAND        PTCLDY    59  50  72 S8        29.91F
GRAND RAPIDS   PTCLDY    61  49  64 SW9       29.94S
IONIA          PTSUNNY   58  48  71 SW7       29.94R
KALAMAZOO      MOCLDY    56  49  77 S9        29.97S
LUDINGTON      MOCLDY    64  54  68 SW18G28   29.82F
MARSHALL       MOCLDY    55  47  76 CALM      29.97S
MOUNT PLEASANT CLEAR     54  48  82 S6        29.88F
MUSKEGON       PTCLDY    65  55  70 S15G24    29.88F
SOUTH HAVEN    MOCLDY    63  51  65 SW10      29.94F
$$
MIZ016>042-200900-
NORTHERN LOWER MICHIGAN

CITY           SKY/WX    TMP DP  RH WIND       PRES   REMARKS
ALPENA         PTCLDY    59  48  67 SW10      29.81F
BEAVER ISLAND  CLOUDY    65  55  69 SW18G28   29.73F
BELLAIRE       CLOUDY    66  48  52 S8G16     29.78F
CADILLAC       MOCLDY    60  50  69 SW18      29.83F
CHARLEVOIX     CLOUDY    66  50  57 S13G24    29.78F
FRANKFORT      CLOUDY    67  53  60 S16G32    29.79F
GAYLORD        CLOUDY    60  47  61 SW15G24   29.82F
GRAYLING       PTCLDY    59  48  65 S6G16     29.85S
HARBOR SPRINGS CLOUDY    66  50  57 SW10G20   29.76S
HOUGHTON LAKE  CLOUDY    58  48  69 S8        29.88F
MANISTEE       CLOUDY    66  50  55 SW9G20    29.82F
OSCODA         PTCLDY    57  50  77 SW15G23   29.87S
PELLSTON       LGT RAIN  65  50  58 SW13G25   29.76S
ROGERS CITY    RAIN      62  51  68 SW13G20   29.78S
TRAVERSE CITY  MOCLDY    66  48  52 SW6G18    29.78S
$$
MIZ007>008-015-200900-
EASTERN UPPER MICHIGAN

CITY           SKY/WX    TMP DP  RH WIND       PRES   REMARKS
KINROSS        CLOUDY    57  57 100 SW6       29.74F
MACKINAC ISLAN CLOUDY    60  53  77 SW7       29.75S
NEWBERRY       CLOUDY    60  53  75 SW18G25   29.70F
S. S. MARIE    CLOUDY    58  54  86 VRB3      29.74F
MUNISING         N/A     63  53  70 S9G21     29.65F
$$
MIZ004>006-011>014-085-200900-
CENTRAL UPPER MICHIGAN

CITY           SKY/WX    TMP DP  RH WIND       PRES   REMARKS
MANISTIQUE     CLOUDY    60  54  81 SW13G23   29.70F
ESCANABA       MOCLDY    61  54  77 S8        29.69F
MENOMINEE      CLOUDY    63  54  72 SW7       29.70F
SAWYER-GWINN   CLEAR     58  52  80 S12       29.65F
$$
MIZ001>003-009>011-084-200900-
WESTERN UPPER MICHIGAN

CITY           SKY/WX    TMP DP  RH WIND       PRES   REMARKS
IRON MOUNTAIN  CLOUDY    62  54  74 S6        29.68F
HOUGHTON       CLOUDY    61  57  87 NE3       29.59F
COPPER HARBOR    N/A     59  55  87 CALM      29.60S
IRONWOOD       PTCLDY    64  63  94 SW10      29.59F
$$

ABBREVIATIONS USED IN REMARKS
   TC - TEMPERATURE IN CELSIUS
  WCI - WIND CHILL INDEX
   HX - HEAT INDEX
  VSB - VISIBILITY



USA.gov is the U.S. government's official web portal to all federal, state and local government web resources and services.